Weather in Lima

Peru     12°02′45″S   77°01′49″W
temp.,
°C
wind,
m/s
gust,
m/s
humid.,
%
clouds,
%
prec.,
mm/h
press.,
hPa
HPBL,
m
20 april, tue
tue2001:00+20s227972 0.0 1013249
04:00+20s217961 0.0 1013186
07:00+19ssw228332 0.0 1014225
10:00+22ssw32704 0.0 1015400
13:00+23ssw43635 0.0 1013541
16:00+22s54654 0.0 1011500
19:00+21sse34725 0.0 1013344
22:00+20s337746 0.0 1014294
21 april, wed
wed2101:00+19ssw228195 0.0 1013248
04:00+19sw228265 0.0 1013233
07:00+19sw218450 0.0 1014228
10:00+21sw217141 0.0 1014331
13:00+22wsw42666 0.0 1013499
16:00+22sw31670 0.0 1012455
19:00+21sw32724 0.0 1013343
22:00+19s228320 0.0 1014295
22 april, thu
thu2201:00+19ssw228337 0.0 1013310
04:00+19s228421 0.0 1012249
07:00+18sw218745 0.0 1014295
10:00+21wsw327537 0.0 1015428
13:00+21wsw427155 0.0 1013602
16:00+22wsw427018 0.0 1012503
19:00+20ssw227915 0.0 1013373
22:00+19s22817 0.0 1015276
23 april, fri
fri2301:00+19sse33818 0.0 1014280
04:00+19s118377 0.0 1013237
07:00+18s2287100 0.0 1014250
10:00+21sw317422 0.0 1015392
13:00+22sw42666 0.0 1012479
16:00+22sw426710 0.0 1011506
19:00+20s33750 0.0 1012335
22:00+19s338012 0.0 1014317
24 april, sat
sat2401:00+19sse338330 0.0 1012287
04:00+18ssw228631 0.0 1012269
07:00+18w118537 0.1 1013280
10:00+21wsw327213 0.0 1014410
13:00+23wsw42641 0.0 1012495
16:00+22wsw31664 0.0 1010468
19:00+20s32755 0.0 1012344
22:00+19s228113 0.0 1013319